Location: *
(46.1006°N, 1.8394°E)
Time: 00:55:00
(UTC+00:00)

Meteor 2-5 Rocket - Pass Details

Date: 20 September 2019
Orbit: 834 x 911 km, 81.2° (Epoch: 22 October)

Event Time Altitude Azimuth Distance (km) Brightness Sun altitude
Rises 19:36:46 0° 350° (N) 3,490 7.3 -18.0°
Reaches altitude 10° 19:39:13 10° 352° (N) 2,558 6.6 -18.4°
Maximum altitude 19:45:03 74° 78° (ENE) 937 3.7 -19.4°
Enters shadow 19:48:48 24° 159° (SSE) 1,793 5.0 -20.0°
